Home   Weather   Horsens   Past weeks

Flag for Denmark Past Weather in Horsens, Denmark — Yesterday and Last 2 Weeks

Now
50 °F

Light rain. Low clouds.


Feels Like: 45 °F
Forecast: 47 / 50 °F
Wind: 14 mph from Southwest

Location: Billund Lufthavn

Current Time: Dec 9, 2016 at 10:23:40 pm

Latest Report: Dec 9, 2016 at 9:50 pm


Visibility: 3 mi

Pressure: 30.01 "Hg

Humidity: 100%

Dew Point: 50 °F

Location of HorsensLocation

Past Weather in Horsens — Graph

°F

Horsens Temperature Yesterday

Maximum temperature yesterday: 52 °F (at 1:50 am)
Minimum temperature yesterday: 48 °F (at 4:50 pm)
Average temperature yesterday: 50 °F

High & Low Weather Summary for the Past Weeks

 TemperatureHumidityPressure
High52 °F (Dec 8, 1:50 am)100% (Nov 24, 8:20 pm)30.54 "Hg (Nov 24, 8:20 pm)
Low19 °F (Dec 3, 5:50 am)53% (Nov 27, 2:50 pm)29.80 "Hg (Dec 1, 4:20 pm)
Average40 °F90%30.19 "Hg
* Reported Nov 24 8:20 pm — Dec 9 8:50 pm, Horsens, Weather by CustomWeather, © 2016

Note: Actual official high and low records may vary slightly from our data, if they occured in-between our weather recording intervals... More about our weather records

Advertising

Horsens Weather History for the Previous 24 Hours

Scroll right to see more
 ConditionsComfort  
Time TempWeatherWind HumidityBarometerVisibility
8:50 pm
Fri, Dec 9
48 °FLight rain. Fog.12 mph100%30.01 "Hg1 mi
8:20 pm48 °FLight rain. Fog.12 mph100%30.04 "Hg2 mi
7:50 pm48 °FLight rain. Fog.12 mph100%30.04 "Hg3 mi
7:20 pm48 °FFog.9 mph100%30.04 "Hg1 mi
6:50 pm48 °FDrizzle. Fog.10 mph100%30.07 "Hg1 mi
6:20 pm48 °FFog.10 mph100%30.07 "Hg1 mi
6:02 pm48 °FFog.9 mph100%30.07 "Hg1 mi
5:20 pm48 °FLight rain. Fog.8 mph94%30.07 "Hg2 mi
4:50 pm48 °FLight rain. Passing clouds.10 mph94%30.09 "Hg4 mi
4:20 pm48 °FLight rain. Mostly cloudy.10 mph94%30.09 "Hg6 mi
3:50 pm48 °FLow clouds.12 mph94%30.12 "HgN/A
3:20 pm48 °FOvercast.9 mph94%30.12 "HgN/A
2:50 pm48 °FLow clouds.14 mph94%30.12 "HgN/A
2:20 pm48 °FPartly sunny.13 mph94%30.12 "HgN/A
1:50 pm48 °FPartly sunny.12 mph94%30.12 "HgN/A
1:20 pm48 °FLow clouds.15 mph94%30.12 "HgN/A
12:50 pm48 °FLow clouds.13 mph94%30.12 "HgN/A
12:20 pm48 °FLow clouds.12 mph94%30.12 "HgN/A
11:50 am46 °FLow clouds.13 mph100%30.12 "HgN/A
11:20 am46 °FPartly sunny.14 mph93%30.12 "Hg6 mi
10:50 am46 °FLow clouds.13 mph93%30.12 "Hg5 mi
10:20 am46 °FLow clouds.13 mph93%30.12 "Hg6 mi
9:50 am46 °FLow clouds.10 mph93%30.09 "HgN/A
9:20 am46 °FLow clouds.13 mph93%30.09 "HgN/A
8:50 am46 °FPartly sunny.13 mph93%30.09 "HgN/A
8:20 am45 °FPassing clouds.12 mph100%30.07 "HgN/A
7:50 am45 °FPassing clouds.15 mph100%30.07 "HgN/A
7:20 am45 °FPassing clouds.16 mph100%30.07 "Hg4 mi
6:50 am45 °FLight rain. Fog.17 mph100%30.07 "Hg3 mi
6:20 am45 °FFog.13 mph100%30.07 "Hg2 mi
5:20 am45 °FFog.14 mph100%30.07 "Hg2 mi
4:50 am45 °FFog.12 mph100%30.07 "Hg1 mi
4:20 am46 °FFog.9 mph100%30.07 "Hg0 mi
3:50 am46 °FFog.10 mph100%30.07 "Hg0 mi
3:20 am46 °FFog.12 mph100%30.07 "Hg0 mi
2:50 am46 °FFog.13 mph100%30.07 "Hg0 mi
2:20 am48 °FFog.10 mph100%30.07 "Hg0 mi
1:50 am48 °FFog.7 mph100%30.07 "Hg0 mi
1:20 am48 °FFog.7 mph100%30.04 "Hg0 mi
12:50 am48 °FFog.10 mph100%30.07 "Hg0 mi
12:20 am48 °FFog.10 mph100%30.07 "Hg0 mi
11:50 pm
Thu, Dec 8
48 °FFog.10 mph100%30.07 "Hg0 mi
11:20 pm48 °FFog.10 mph100%30.07 "Hg0 mi
10:50 pm48 °FFog.13 mph100%30.07 "Hg0 mi
10:20 pm48 °FFog.10 mph100%30.07 "Hg0 mi
Weather by CustomWeather, © 2016

See weather overviewHow to use our weather pages